Regional Weather Roundup
Issued by NWS

Home | Current Version | Previous Version | Text Only | Print | Product List | Glossary Off
Versions: 1 2 3 4 5 6 7 8 9 10 11 12 13 14 15 16 17 18 19 20 21 22 23 24 25 26 27 28 29 30 31 32 33 34 35 36 37 38 39 40 41 42 43 44 45 46 47 48 49 50

000
ASUS44 KMEG 011110
RWRTN
TENNESSEE HOURLY STATE WEATHER ROUNDUP
NATIONAL WEATHER SERVICE MEMPHIS TN
600 AM CDT SUN MAY 01 2016

TNZ002-004-019-021-049-052-054-088>092-011200-
WEST TENNESSEE

CITY           SKY/WX    TMP DP  RH WIND       PRES   REMARKS
MEMPHIS INTL   PTCLDY    65  62  90 CALM      29.88F
NWS MEMPHIS      N/A     63 N/A N/A MISG        N/A
JACKSON        CLOUDY    65  63  93 S3        29.91R
DYERSBURG      MOCLDY    63  61  94 CALM        N/A  VSB 1
UNION CITY     CLOUDY    59  59 100 CALM      29.89R VSB 1
LEXINGTON      CLOUDY    63  63 100 CALM      29.91S
$$

TNZ008-025-027-028-033-062-065-066-011200-
NORTH MIDDLE TENNESSEE

CITY           SKY/WX    TMP DP  RH WIND       PRES   REMARKS
NASHVILLE      PTCLDY    65  62  90 S3        29.93R
CLARKSVILLE    LGT RAIN  61  60  97 CALM      29.91R VSB 1/4
SMYRNA         MOCLDY    64  64 100 E5        29.94R
COOKEVILLE     MOCLDY    64  64 100 CALM      29.95R
CROSSVILLE     PTCLDY    67  62  84 VRB3      30.00R
$$

TNZ061-075-076-078-094-096-097-011200-
SOUTH MIDDLE TENNESSEE

CITY           SKY/WX    TMP DP  RH WIND       PRES   REMARKS
FAYETTEVILLE   MOCLDY    66  64  94 S6        29.96S
TULLAHOMA      CLEAR     64  64 100 S6        29.97S
WINCHESTER     MOCLDY    63  63 100 CALM      29.98R
MCMINNVILLE    PTCLDY    66  66 100 SW3       29.97R
COLUMBIA       CLEAR    N/A N/A N/A S3        29.91R
SHELBYVILLE    CLEAR     64  64 100 S5        29.96R
$$

TNZ017-018-042-046-047-011200-
NORTHEAST TENNESSEE

CITY           SKY/WX    TMP DP  RH WIND       PRES   REMARKS
TRI CITIES     CLOUDY    59  58  96 CALM      30.00R
$$

TNZ012-013-036-069-073-074-011200-
CENTRAL EAST TENNESSEE

CITY           SKY/WX    TMP DP  RH WIND       PRES   REMARKS
KNOXVILLE      FOG       62  62 100 CALM      29.98R VSB 1/4
OAK RIDGE      CLOUDY    63  62  97 CALM      30.00R
GATLINBURG     CLOUDY    63  63 100 CALM      29.99R
$$

TNZ083-085-099-011200-
SOUTHEAST TENNESSEE

CITY           SKY/WX    TMP DP  RH WIND       PRES   REMARKS
CHATTANOOGA    MOCLDY    64  62  93 CALM      29.98R
$$

SKY/WX REPORTED AS FAIR MEANS FEW OR NO CLOUDS BELOW
12 THOUSAND FEET.





USA.gov is the U.S. government's official web portal to all federal, state and local government web resources and services.